Change the Weather History Date:

Monday, January 7, 2013

  Actual Average (KVPZ) Record (KVPZ)
Temperature  
Mean Temperature 23 °F 24 °F  
Max Temperature 32 °F 31 °F 65 °F (2008)
Min Temperature 14 °F 16 °F -15 °F (2014)
Degree Days  
Heating Degree Days 42 41  
Month to date heating degree days 287  
Since 1 July heating degree days 2689  
Cooling Degree Days 0 0  
Month to date cooling degree days 0  
Year to date cooling degree days 0  
Moisture  
Dew Point 20 °F    
Average Humidity 85    
Maximum Humidity 97    
Minimum Humidity 71    
Precipitation  
Precipitation 0.00 in 0.05 in 0.87 in (2008)
Month to date precipitation 0.38  
Year to date precipitation 0.38  
Sea Level Pressure  
Sea Level Pressure 30.27 in    
Wind  
Wind Speed 8 mph (SSW)    
Max Wind Speed 22 mph    
Max Gust Speed 26 mph    
Visibility 8 miles    
Events      
T = Trace of Precipitation, MM = Missing Value Source: NWS Daily Summary

Daily Weather History Graph

Daily Weather History Graph

Search for Another Location

Airport or City:

Trip Planner

Search our weather history database for the weather conditions in past years. The results will help you decide how hot, cold, wet, or windy it might be!

Date:

Astronomy

Jan. 07, 2013 Rise Set
Actual Time 7:12 AM CST 4:33 PM CST
Civil Twilight 6:41 AM CST 5:04 PM CST
Nautical Twilight 6:07 AM CST 5:39 PM CST
Astronomical Twilight 5:33 AM CST 6:12 PM CST
Moon 2:35 AM CST (1/7) 12:45 PM CST (1/7)
Length of Visible Light 10h 23m
Length of Day
9h 21m
Waning Crescent, 22% of the Moon is Illuminated
Jan 7
Waning Crescent
Jan 11
New
Jan 18
First Quarter
Jan 26
Full
Feb 3
Last Quarter

Hourly Weather History & Observations

Time (CST) Temp. Windchill Dew Point Humidity Pressure Visibility Wind Dir Wind Speed Gust Speed Precip Events Conditions
12:35 AM 17.2 °F 10.2 °F 15.8 °F 94% 30.33 in 5.0 mi SW 4.6 mph - N/A   Clear
12:55 AM 17.2 °F 8.9 °F 16.2 °F 96% 30.33 in 5.0 mi WSW 5.8 mph - N/A   Clear
1:15 AM 16.2 °F 10.6 °F 15.1 °F 95% 30.33 in 4.0 mi SW 3.5 mph - N/A   Clear
1:35 AM 16.3 °F 9.2 °F 15.3 °F 96% 30.33 in 4.0 mi SSW 4.6 mph - N/A   Clear
2:15 AM 16.5 °F 8.1 °F 15.3 °F 95% 30.35 in 3.0 mi SW 5.8 mph - N/A   Clear
2:35 AM 16.3 °F 7.8 °F 15.3 °F 96% 30.35 in 3.0 mi SW 5.8 mph - N/A   Clear
2:55 AM 16.3 °F 9.2 °F 15.3 °F 96% 30.35 in 1.8 mi South 4.6 mph - N/A   Unknown
3:15 AM 15.3 °F 7.9 °F 14.0 °F 95% 30.36 in 2.0 mi South 4.6 mph - N/A   Clear
3:35 AM 16.2 °F 9.0 °F 15.3 °F 96% 30.35 in 2.5 mi South 4.6 mph - N/A   Clear
3:55 AM 15.6 °F 7.0 °F 14.4 °F 95% 30.35 in 2.5 mi South 5.8 mph - N/A   Clear
4:15 AM 14.5 °F 5.7 °F 13.3 °F 95% 30.35 in 3.0 mi South 5.8 mph - N/A   Clear
4:35 AM 14.2 °F 5.3 °F 12.7 °F 94% 30.36 in 4.0 mi SSW 5.8 mph - N/A   Clear
4:55 AM 14.7 °F 5.9 °F 13.5 °F 95% 30.37 in 4.0 mi SSW 5.8 mph - N/A   Clear
5:15 AM 14.5 °F 5.7 °F 13.1 °F 94% 30.36 in 4.0 mi South 5.8 mph - N/A   Clear
5:35 AM 14.2 °F 6.7 °F 12.9 °F 95% 30.36 in 4.0 mi South 4.6 mph - N/A   Clear
5:55 AM 14.7 °F 7.3 °F 13.1 °F 93% 30.37 in 4.0 mi SSW 4.6 mph - N/A   Clear
6:15 AM 14.7 °F 5.9 °F 13.5 °F 95% 30.38 in 4.0 mi South 5.8 mph - N/A   Clear
6:35 AM 14.9 °F 5.0 °F 13.6 °F 95% 30.37 in 5.0 mi South 6.9 mph - N/A   Clear
6:55 AM 15.6 °F 5.9 °F 14.2 °F 94% 30.37 in 5.0 mi South 6.9 mph - N/A   Clear
7:15 AM 15.8 °F 7.2 °F 14.7 °F 95% 30.37 in 5.0 mi South 5.8 mph - N/A   Clear
7:35 AM 16.2 °F 10.6 °F 14.7 °F 94% 30.37 in 5.0 mi South 3.5 mph - N/A   Clear
7:55 AM 16.5 °F 9.4 °F 15.3 °F 95% 30.36 in 5.0 mi South 4.6 mph - N/A   Clear
8:15 AM 17.4 °F 8.0 °F 16.3 °F 96% 30.37 in 5.0 mi South 6.9 mph - N/A   Clear
8:35 AM 18.7 °F 8.6 °F 17.8 °F 96% 30.36 in 5.0 mi South 8.1 mph - N/A   Clear
8:55 AM 20.1 °F 9.5 °F 19.2 °F 96% 30.36 in 5.0 mi SSW 9.2 mph - N/A   Clear
9:35 AM 22.6 °F 10.7 °F 21.9 °F 97% 30.37 in 7.0 mi SSW 12.7 mph - N/A   Clear
9:55 AM 24.1 °F 13.1 °F 22.6 °F 94% 30.37 in 10.0 mi SSW 11.5 mph - N/A   Clear
10:15 AM 25.3 °F 16.0 °F 21.9 °F 87% 30.36 in 10.0 mi South 9.2 mph - N/A   Clear
10:35 AM 26.8 °F 16.5 °F 22.1 °F 83% 30.35 in 10.0 mi SSW 11.5 mph - N/A   Clear
10:55 AM 28.4 °F 18.0 °F 22.3 °F 78% 30.33 in 10.0 mi SSW 12.7 mph - N/A   Clear
11:35 AM 30.0 °F 19.1 °F 22.5 °F 73% 30.30 in 10.0 mi SSW 15.0 mph - N/A   Clear
11:55 AM 30.7 °F 20.4 °F 23.0 °F 73% 30.28 in 10.0 mi SSW 13.8 mph - N/A   Clear
12:15 PM 31.6 °F 20.4 °F 23.4 °F 71% 30.27 in 10.0 mi SSW 17.3 mph 26.5 mph N/A   Clear
12:55 PM 32.0 °F 19.8 °F 24.4 °F 74% 30.25 in 10.0 mi SSW 20.7 mph 24.2 mph N/A   Clear
1:15 PM 32.0 °F 20.1 °F 24.6 °F 74% 30.24 in 10.0 mi SSW 19.6 mph 25.3 mph N/A   Clear
1:35 PM 32.4 °F 20.9 °F 24.8 °F 74% 30.23 in 10.0 mi SSW 18.4 mph - N/A   Clear
1:55 PM 32.7 °F 21.1 °F 25.2 °F 74% 30.23 in 10.0 mi SSW 19.6 mph - N/A   Clear
2:15 PM 32.9 °F 22.4 °F 25.0 °F 73% 30.22 in 10.0 mi SSW 16.1 mph 26.5 mph N/A   Clear
2:35 PM 32.9 °F 20.7 °F 25.5 °F 74% 30.21 in 10.0 mi South 21.9 mph 26.5 mph N/A   Clear
2:55 PM 32.9 °F 21.6 °F 25.3 °F 74% 30.21 in 10.0 mi SSW 18.4 mph - N/A   Clear
3:15 PM 32.7 °F 22.1 °F 25.5 °F 75% 30.21 in 10.0 mi SSW 16.1 mph - N/A   Clear
3:35 PM 32.7 °F 22.1 °F 25.3 °F 74% 30.21 in 10.0 mi SSW 16.1 mph 24.2 mph N/A   Clear
3:55 PM 32.4 °F 22.1 °F 25.2 °F 75% 30.22 in 10.0 mi SSW 15.0 mph - N/A   Clear
4:15 PM 31.8 °F 23.3 °F 25.0 °F 76% 30.22 in 10.0 mi SSW 10.4 mph - N/A   Clear
4:55 PM 30.7 °F 22.6 °F 24.6 °F 78% 30.21 in 10.0 mi SSW 9.2 mph - N/A   Clear
5:15 PM 30.0 °F 21.1 °F 24.4 °F 80% 30.20 in 10.0 mi South 10.4 mph - N/A   Clear
5:35 PM 29.5 °F 19.9 °F 23.9 °F 80% 30.19 in 10.0 mi South 11.5 mph - N/A   Clear
5:55 PM 29.7 °F 19.6 °F 23.9 °F 79% 30.18 in 10.0 mi South 12.7 mph - N/A   Clear
6:15 PM 29.7 °F 18.6 °F 23.9 °F 79% 30.17 in 10.0 mi South 15.0 mph - N/A   Clear
6:35 PM 30.0 °F 19.5 °F 23.9 °F 78% 30.17 in 10.0 mi South 13.8 mph 18.4 mph N/A   Clear
6:55 PM 30.0 °F 20.0 °F 23.9 °F 78% 30.17 in 10.0 mi South 12.7 mph 21.9 mph N/A   Clear
7:15 PM 29.7 °F 18.6 °F 23.7 °F 79% 30.16 in 10.0 mi South 15.0 mph - N/A   Clear
7:35 PM 29.7 °F 20.1 °F 23.5 °F 78% 30.16 in 10.0 mi South 11.5 mph 17.3 mph N/A   Clear
7:55 PM 29.3 °F 20.2 °F 23.0 °F 77% 30.16 in 10.0 mi SSW 10.4 mph - N/A   Clear
8:15 PM 29.3 °F 19.6 °F 22.8 °F 77% 30.15 in 10.0 mi South 11.5 mph - N/A   Clear
8:35 PM 29.7 °F 19.1 °F 22.8 °F 76% 30.15 in 10.0 mi South 13.8 mph - N/A   Clear
8:55 PM 29.5 °F 18.8 °F 22.8 °F 76% 30.14 in 10.0 mi South 13.8 mph - N/A   Clear
9:15 PM 29.5 °F 19.3 °F 22.3 °F 75% 30.14 in 10.0 mi SSW 12.7 mph - N/A   Clear
9:35 PM 29.3 °F 20.2 °F 22.1 °F 75% 30.15 in 10.0 mi SSW 10.4 mph - N/A   Clear
9:55 PM 28.9 °F 19.2 °F 22.1 °F 76% 30.16 in 10.0 mi SSW 11.5 mph - N/A   Clear
10:15 PM 28.9 °F 19.2 °F 22.3 °F 76% 30.17 in 10.0 mi SW 11.5 mph - N/A   Clear
10:35 PM 28.6 °F 20.7 °F 22.6 °F 78% 30.17 in 10.0 mi SW 8.1 mph - N/A   Clear
10:55 PM 27.7 °F 19.6 °F 22.5 °F 81% 30.17 in 10.0 mi SSW 8.1 mph - N/A   Clear
11:15 PM 27.0 °F 20.5 °F 22.5 °F 83% 30.16 in 10.0 mi SSW 5.8 mph - N/A   Clear
11:35 PM 26.8 °F 19.3 °F 22.8 °F 85% 30.16 in 10.0 mi SSW 6.9 mph - N/A   Clear
11:55 PM 26.8 °F 20.2 °F 22.8 °F 85% 30.15 in 10.0 mi SSW 5.8 mph - N/A   Clear